"2009-06-07 00:00:00",953587,0.706,223.6,20.44,0.204,18.31,109.1539,22.72,23.81,19,0,111.3,13.09,23.55,185.6
"2009-06-07 00:00:30",953588,0.893,215.9,19.11,0.248,18.35,109.1542,22.72,23.79,18.96,0,111.3,13.09,23.55,177.9
"2009-06-07 00:01:00",953589,1.02,213.2,6.252,0.187,18.3,109.1311,22.66,23.76,18.92,0,111.3,13.09,23.49,175.2
"2009-06-07 00:01:30",953590,1.496,231,7.919,0.18,18.32,109.1146,22.62,23.74,19.02,0,111.3,13.09,23.45,193.0
"2009-06-07 00:02:00",953591,1.311,235.1,7.886,0.254,18.36,109.0955,22.57,23.71,19.14,0,111.3,13.09,23.40,197.1
"2009-06-07 00:02:30",953592,0.866,221.4,14.39,0.205,18.39,109.0989,22.58,23.67,19.24,0,111.3,13.09,23.41,183.4
"2009-06-07 00:03:00",953593,1.185,210.8,8.1,0.139,18.38,109.1065,22.6,23.65,19.26,0,111.3,13.09,23.43,172.8
"2009-06-07 00:03:30",953594,1,196.4,7.769,0.082,18.35,109.0949,22.57,23.63,19.24,0,111.3,13.09,23.40,158.4
"2009-06-07 00:04:00",953595,1.47,192.3,10.3,0.268,18.4,109.0829,22.54,23.61,19.21,0,111.3,13.09,23.37,154.3
"2009-06-07 00:04:30",953596,1.291,214.1,6.213,0.402,18.4,109.0785,22.53,23.58,19.19,0,111.2,13.09,23.36,176.1
"2009-06-07 00:05:00",953597,0.881,219.5,11.08,0.315,18.38,109.0645,22.49,23.55,19.17,0,111.2,13.09,23.32,181.5
"2009-06-07 00:05:30",953598,1.395,223,1.837,0.166,18.32,109.0547,22.47,23.53,19.21,0,111.2,13.1,23.30,185.0
"2009-06-07 00:06:00",953599,1.399,229.5,4.117,0.164,18.4,109.0477,22.45,23.52,19.16,0,111.2,13.1,23.28,191.5
"2009-06-07 00:06:30",953600,1.379,237.2,4,0.054,18.5,109.0236,22.39,23.5,19.15,0,111.2,13.1,23.22,199.2
"2009-06-07 00:07:00",953601,1.378,241.5,5.602,0.133,18.51,109.0172,22.37,23.47,19.12,0,111.2,13.1,23.20,203.5
"2009-06-07 00:07:30",953602,1.815,237.2,4.602,0.134,18.48,108.9919,22.31,23.44,18.88,0,111.2,13.1,23.14,199.2
"2009-06-07 00:08:00",953603,1.821,226.3,3.071,0.084,18.55,108.9768,22.27,23.4,18.86,0,111.2,13.1,23.10,188.3
"2009-06-07 00:08:30",953604,1.826,216.7,3.176,0.269,18.52,108.9577,22.22,23.37,18.9,0,111.2,13.1,23.05,178.7
"2009-06-07 00:09:00",953605,1.219,206,8.76,0.12,18.48,108.9512,22.2,23.34,18.94,0,111.2,13.1,23.03,168.0
"2009-06-07 00:09:30",953606,1.211,214.4,6.099,0.12,18.39,108.9288,22.14,23.31,19.04,0,111.2,13.1,22.97,176.4
"2009-06-07 00:10:00",953607,1.621,221.3,2.685,0.156,18.44,108.9217,22.13,23.28,19.17,0,111.2,13.11,22.95,183.3
"2009-06-07 00:10:30",953608,1.869,223.7,4.247,0.198,18.45,108.9158,22.11,23.26,19.29,0,111.2,13.11,22.94,185.7
"2009-06-07 00:11:00",953609,1.584,215.5,3.311,0.134,18.52,108.9052,22.08,23.21,19.31,0,111.2,13.11,22.91,177.5
"2009-06-07 00:11:30",953610,1.441,211,2.911,0.1,18.59,108.9104,22.1,23.2,19.27,0,111.2,13.11,22.93,173.0
"2009-06-07 00:12:00",953611,1.698,226.3,4.627,0.054,18.55,108.8889,22.04,23.15,19.2,0,111.2,13.11,22.87,188.3
"2009-06-07 00:12:30",953612,1.848,230.4,4.438,0.189,18.49,108.88,22.02,23.13,19.31,0,111.2,13.11,22.85,192.4
"2009-06-07 00:13:00",953613,1.685,218.2,6.987,0.249,18.5,108.8741,22,23.09,19.48,0,111.2,13.11,22.83,180.2
"2009-06-07 00:13:30",953614,1.558,232.6,7.305,0.155,18.61,108.857,21.96,23.07,19.44,0,111.2,13.11,22.79,194.6
"2009-06-07 00:14:00",953615,1.7,222.9,2.389,0.151,18.56,108.8543,21.95,23.06,19.31,0,111.2,13.11,22.78,184.9
"2009-06-07 00:14:30",953616,2.01,218.8,4.461,0.154,18.57,108.8364,21.91,23.02,19.49,0,111.2,13.12,22.73,180.8
"2009-06-07 00:15:00",953617,2.123,213.5,3.961,0.176,18.58,108.823,21.87,22.99,19.54,0,111.1,13.12,22.70,175.5
"2009-06-07 00:15:30",953618,2.194,217.4,8.77,0.173,18.59,108.8173,21.86,22.96,19.64,0,111.1,13.12,22.69,179.4
"2009-06-07 00:16:00",953619,2.259,220.8,3.167,0.106,18.59,108.7929,21.79,22.94,19.67,0,111.1,13.12,22.62,182.8
"2009-06-07 00:16:30",953620,2.342,227,2.199,0.097,18.61,108.7876,21.78,22.91,19.68,0,111.1,13.12,22.61,189.0
"2009-06-07 00:17:00",953621,2.052,224,3.17,0.278,18.61,108.7654,21.72,22.89,19.81,0,111.2,13.12,22.55,186.0
"2009-06-07 00:17:30",953622,2.038,222.2,4.036,0.123,18.62,108.7539,21.69,22.84,19.85,0,111.1,13.11,22.52,184.2
"2009-06-07 00:18:00",953623,2.353,220.4,3.827,0.095,18.66,108.7405,21.66,22.82,19.88,0,111.1,13.11,22.49,182.4
"2009-06-07 00:18:30",953624,2.395,219.9,2.429,0.09,18.61,108.7301,21.63,22.79,19.97,0,111.1,13.11,22.46,181.9
"2009-06-07 00:19:00",953625,2.377,217,3.85,0.242,18.56,108.7365,21.65,22.76,20,0,111.1,13.11,22.48,179.0
"2009-06-07 00:19:30",953626,2.714,215.5,4.325,0.17,18.57,108.7232,21.62,22.73,19.98,0,111.1,13.11,22.44,177.5
"2009-06-07 00:20:00",953627,2.58,219.9,2.239,0.25,18.64,108.7149,21.59,22.7,20.06,0,111.1,13.11,22.42,181.9
"2009-06-07 00:20:30",953628,2.714,224,2.248,0.171,18.55,108.7118,21.59,22.69,20.15,0,111.1,13.12,22.41,186.0
"2009-06-07 00:21:00",953629,2.904,235.6,3.383,0.108,18.49,108.6939,21.54,22.66,20.29,0,111.1,13.12,22.37,197.6
"2009-06-07 00:21:30",953630,3.291,240,6.492,0.199,18.47,108.6892,21.53,22.63,20.27,0,111.1,13.12,22.36,202.0
"2009-06-07 00:22:00",953631,2.78,245.2,5.643,0.212,18.44,108.6772,21.5,22.61,20.24,0,111.1,13.12,22.32,207.2
"2009-06-07 00:22:30",953632,3.309,241.9,6.001,0.237,18.49,108.6589,21.45,22.57,20.28,0,111.1,13.12,22.28,203.9
"2009-06-07 00:23:00",953633,3.782,248.3,4.703,0.306,18.58,108.6561,21.44,22.55,20.33,0,111.1,13.12,22.27,210.3
"2009-06-07 00:23:30",953634,3.493,243.7,2.317,0.312,18.64,108.6393,21.4,22.53,20.46,0,111.1,13.12,22.23,205.7
"2009-06-07 00:24:00",953635,3.188,246.3,4.794,0.296,18.67,108.6233,21.36,22.5,20.38,0,111.1,13.13,22.19,208.3
"2009-06-07 00:24:30",953636,3.772,250.7,3.565,0.343,18.73,108.6224,21.36,22.47,20.51,0,111.1,13.13,22.18,212.7
"2009-06-07 00:25:00",953637,3.557,251,4.433,0.271,18.75,108.6078,21.32,22.45,20.98,0,111.1,13.13,22.15,213.0
"2009-06-07 00:25:30",953638,3.092,233.8,5.512,0.194,18.71,108.5907,21.28,22.43,20.97,0,111.1,13.13,22.10,195.8
"2009-06-07 00:26:00",953639,2.476,235.3,5.634,0.193,18.7,108.59,21.27,22.38,20.95,0,111.1,13.13,22.10,197.3
"2009-06-07 00:26:30",953640,2.585,240.8,5,0.296,18.71,108.5778,21.24,22.35,21.05,0,111.1,13.13,22.07,202.8
"2009-06-07 00:27:00",953641,2.322,241,11.18,0.25,18.73,108.5682,21.22,22.33,21.31,0,111.1,13.13,22.04,203.0
"2009-06-07 00:27:30",953642,2.177,225.9,5.158,0.394,18.71,108.5749,21.23,22.31,21.31,0,111.1,13.13,22.06,187.9
"2009-06-07 00:28:00",953643,2.554,221.7,7.386,0.339,18.77,108.5788,21.24,22.29,21.39,0,111.1,13.13,22.07,183.7
"2009-06-07 00:28:30",953644,2.124,220.5,2.756,0.135,18.7,108.5774,21.24,22.27,21.47,0,111,13.13,22.07,182.5
"2009-06-07 00:29:00",953645,2.206,230.3,9.12,0.326,18.71,108.5561,21.19,22.26,21.29,0,111,13.13,22.01,192.3
"2009-06-07 00:29:30",953646,2.258,230.1,6.26,0.207,18.69,108.5494,21.17,22.24,20.86,0,111,13.13,22.00,192.1
"2009-06-07 00:30:00",953647,2.242,226.3,14.21,0.309,18.62,108.5447,21.16,22.21,20.9,0,111,13.13,21.98,188.3
"2009-06-07 00:30:30",953648,2.559,236.7,16.59,0.171,18.63,108.5295,21.12,22.18,21.02,0,111,13.13,21.94,198.7
"2009-06-07 00:31:00",953649,2.541,260.1,2.304,0.144,18.7,108.5243,21.1,22.14,20.46,0,111,13.13,21.93,222.1
"2009-06-07 00:31:30",953650,2.337,233.4,6.906,0.391,18.64,108.5215,21.1,22.11,20.55,0,111,13.13,21.92,195.4
"2009-06-07 00:32:00",953651,2.717,228.3,4.824,0.267,18.65,108.5069,21.06,22.09,21.58,0,111,13.13,21.89,190.3
"2009-06-07 00:32:30",953652,2.059,230.3,4.583,0.185,18.63,108.4993,21.04,22.08,21.6,0,111,13.13,21.87,192.3
"2009-06-07 00:33:00",953653,2.311,230.3,4.216,0.356,18.59,108.4945,21.03,22.07,21.78,0,111,13.14,21.85,192.3
"2009-06-07 00:33:30",953654,2.847,229.4,4.497,0.179,18.59,108.4906,21.02,22.06,21.51,0,111,13.14,21.84,191.4
"2009-06-07 00:34:00",953655,2.604,228.8,7.233,0.201,18.65,108.4889,21.01,22.03,21.04,0,111,13.14,21.84,190.8
"2009-06-07 00:34:30",953656,3.919,244.2,3.458,0.217,18.71,108.479,20.99,22.03,20.79,0,111,13.13,21.81,206.2
"2009-06-07 00:35:00",953657,3.231,254.3,5.943,0.274,18.73,108.4703,20.97,22,21.16,0,111,13.13,21.79,216.3
"2009-06-07 00:35:30",953658,3.353,242.5,3.817,0.289,18.69,108.4667,20.96,21.99,21.19,0,111,13.13,21.78,204.5
"2009-06-07 00:36:00",953659,3.57,241.9,5.92,0.345,18.7,108.4628,20.95,21.98,21.26,0,111,13.13,21.77,203.9
"2009-06-07 00:36:30",953660,4.641,253,4.922,0.5,18.77,108.466,20.96,21.97,20.86,0,111,13.13,21.78,215.0
"2009-06-07 00:37:00",953661,4.828,263.8,7.9,0.382,18.75,108.4758,20.98,21.97,19.49,0,111,13.14,21.81,225.8
"2009-06-07 00:37:30",953662,5.714,265.7,8.7,0.271,18.79,108.4803,20.99,21.97,19.41,0,111,13.14,21.82,227.7
"2009-06-07 00:38:00",953663,4.409,249.6,3.985,0.525,18.77,108.4837,21,21.97,19.85,0,111,13.14,21.83,211.6
"2009-06-07 00:38:30",953664,4.337,251,5.535,0.362,18.73,108.4669,20.96,21.96,19.99,0,111,13.14,21.78,213.0
"2009-06-07 00:39:00",953665,5.114,260,2.369,0.204,18.78,108.4596,20.94,21.95,20.46,0,111,13.14,21.76,222.0
"2009-06-07 00:39:30",953666,4.798,266.6,3.46,0.188,18.73,108.4585,20.94,21.93,20.9,0,111,13.14,21.76,228.6
"2009-06-07 00:40:00",953667,5.244,257.4,4.979,0.582,18.7,108.4542,20.92,21.92,21.01,0,111,13.14,21.75,219.4
"2009-06-07 00:40:30",953668,6.199,250.3,3.242,0.544,18.74,108.4564,20.93,21.91,21.2,0,111,13.14,21.76,212.3
"2009-06-07 00:41:00",953669,7.879,270.1,5.499,0.348,18.57,108.4597,20.94,21.91,19.19,0,111,13.15,21.76,232.1
"2009-06-07 00:41:30",953670,7.071,276.3,1.919,0.336,18.5,108.4594,20.94,21.9,16.87,0,111,13.15,21.76,238.3
"2009-06-07 00:42:00",953671,6.724,276.8,5.219,0.402,18.4,108.4561,20.93,21.89,16.08,0,111,13.15,21.75,238.8
"2009-06-07 00:42:30",953672,8.41,297.8,3.482,0.681,18.25,108.4499,20.91,21.9,16.26,0,111,13.15,21.74,259.8
"2009-06-07 00:43:00",953673,8.42,294.5,4.887,0.309,18.24,108.4387,20.89,21.88,15.18,0,111,13.15,21.71,256.5
"2009-06-07 00:43:30",953674,8.76,298.5,1.534,0.272,18.34,108.4311,20.87,21.88,14.81,0,111,13.15,21.69,260.5
"2009-06-07 00:44:00",953675,8.25,299.9,3.423,0.214,18.35,108.426,20.85,21.87,14.38,0,111,13.15,21.68,261.9
"2009-06-07 00:44:30",953676,8.32,296.2,2.089,0.197,18.35,108.426,20.85,21.86,14.34,0,111,13.15,21.68,258.2
"2009-06-07 00:45:00",953677,7.613,299.6,2.44,0.547,18.32,108.4249,20.85,21.84,14.38,0,111,13.15,21.67,261.6
"2009-06-07 00:45:30",953678,7.554,296.7,1.991,0.201,18.36,108.4181,20.83,21.83,14.35,0,111,13.15,21.66,258.7
"2009-06-07 00:46:00",953679,8.58,300.7,3.233,0.636,18.31,108.4033,20.79,21.82,14.36,0,111,13.15,21.62,262.7
"2009-06-07 00:46:30",953680,9.85,295.2,2.519,0.597,18.37,108.3979,20.78,21.83,14.32,0,111,13.15,21.61,257.2
"2009-06-07 00:47:00",953681,9.08,293.3,1.905,0.334,18.42,108.3948,20.77,21.82,14.13,0,111,13.15,21.60,255.3
"2009-06-07 00:47:30",953682,8.29,291.8,1.559,0.279,18.41,108.4015,20.79,21.81,14.13,0,111,13.15,21.61,253.8
"2009-06-07 00:48:00",953683,8.19,296.7,1.196,0.116,18.36,108.4121,20.82,21.81,14.1,0,111,13.15,21.64,258.7
"2009-06-07 00:48:30",953684,7.923,296.1,1.311,0.127,18.28,108.4164,20.83,21.79,14.16,0,111,13.15,21.65,258.1
"2009-06-07 00:49:00",953685,8.13,295.7,2.745,0.189,18.23,108.4158,20.83,21.79,14.4,0,110.9,13.15,21.65,257.7
"2009-06-07 00:49:30",953686,8.14,293.8,2.096,0.219,18.11,108.4023,20.79,21.78,15.13,0,111,13.15,21.62,255.8
"2009-06-07 00:50:00",953687,8.59,295.7,2.029,0.625,18.12,108.3947,20.77,21.78,15.16,0,111,13.15,21.60,257.7
"2009-06-07 00:50:30",953688,8.04,300.1,5.495,0.449,18.08,108.3901,20.76,21.77,15.2,0,110.9,13.15,21.59,262.1
"2009-06-07 00:51:00",953689,7.878,302.1,2.878,0.538,18.02,108.3903,20.76,21.78,15.63,0,110.9,13.16,21.59,264.1
"2009-06-07 00:51:30",953690,8.58,300,3.013,0.679,18.08,108.3924,20.77,21.75,15.57,0,110.9,13.15,21.59,262.0
"2009-06-07 00:52:00",953691,9.1,299.5,2.867,0.242,18.16,108.3949,20.77,21.75,15.16,0,110.9,13.15,21.60,261.5
"2009-06-07 00:52:30",953692,9.17,299.3,2.196,0.33,18.17,108.3856,20.75,21.75,14.73,0,110.9,13.15,21.57,261.3
"2009-06-07 00:53:00",953693,8.94,302.3,2.441,0.318,18.06,108.3704,20.71,21.72,15.12,0,110.9,13.15,21.53,264.3
"2009-06-07 00:53:30",953694,9.37,300.2,1.548,0.431,18.06,108.362,20.69,21.72,14.84,0,110.9,13.15,21.51,262.2
"2009-06-07 00:54:00",953695,9.67,298.7,2.24,0.328,18.14,108.3614,20.69,21.71,15.32,0,110.9,13.15,21.51,260.7
"2009-06-07 00:54:30",953696,9.6,297.5,2.049,0.303,18.13,108.3614,20.69,21.7,14.36,0,110.9,13.15,21.51,259.5
"2009-06-07 00:55:00",953697,10.25,300.2,1.86,0.436,18.1,108.3614,20.69,21.69,14.3,0,110.9,13.15,21.51,262.2
"2009-06-07 00:55:30",953698,10.34,296.4,2.577,0.23,18.13,108.3603,20.68,21.68,14.2,0,110.9,13.15,21.51,258.4
"2009-06-07 00:56:00",953699,9.99,296.3,4.286,0.234,18.08,108.3533,20.67,21.65,14.26,0,110.9,13.15,21.49,258.3
"2009-06-07 00:56:30",953700,10.13,300.4,2.909,0.316,18.1,108.3463,20.65,21.67,14.51,0,110.9,13.15,21.47,262.4
"2009-06-07 00:57:00",953701,10.6,299.9,3.247,0.333,18.02,108.3423,20.64,21.67,14.57,0,110.9,13.16,21.46,261.9
"2009-06-07 00:57:30",953702,10.98,303.7,0.803,0.186,18.04,108.3399,20.63,21.66,14.33,0,110.9,13.16,21.46,265.7
"2009-06-07 00:58:00",953703,10.72,303.6,1.302,0.213,18.09,108.3409,20.63,21.66,14.28,0,110.9,13.16,21.46,265.6
"2009-06-07 00:58:30",953704,10.53,304.9,0.766,0.235,18.09,108.3398,20.63,21.66,14.37,0,110.9,13.16,21.46,266.9
"2009-06-07 00:59:00",953705,10.64,303.3,1.213,0.313,18.15,108.3384,20.63,21.66,14.38,0,110.9,13.16,21.45,265.3
"2009-06-07 00:59:30",953706,10.29,303.1,1.008,0.261,18.15,108.3319,20.61,21.66,14.36,0,110.9,13.16,21.44,265.1
"2009-06-07 01:00:00",953707,10.47,303.9,1.441,0.3,18.15,108.331,20.61,21.64,14.36,0,110.9,13.16,21.43,265.9
"2009-06-07 01:00:30",953708,10.91,302.6,0.659,0.124,18.14,108.3359,20.62,21.65,14.36,0,110.9,13.16,21.45,264.6
"2009-06-07 01:01:00",953709,11.12,305.2,1.202,0.444,18.2,108.3402,20.63,21.64,14.32,0,110.9,13.17,21.46,267.2
"2009-06-07 01:01:30",953710,10.96,305.7,0.853,0.369,18.15,108.3438,20.64,21.64,14.34,0,110.9,13.17,21.47,267.7
"2009-06-07 01:02:00",953711,11.41,306.1,0.926,0.371,18.14,108.349,20.66,21.63,14.32,0,110.9,13.17,21.48,268.1
"2009-06-07 01:02:30",953712,10.95,306.6,1.537,0.323,18.12,108.3515,20.66,21.63,14.37,0,110.9,13.17,21.49,268.6
"2009-06-07 01:03:00",953713,10.15,309.3,0.974,0.155,18.08,108.3522,20.66,21.63,14.5,0,110.9,13.17,21.49,271.3
"2009-06-07 01:03:30",953714,10.19,309.2,1.55,0.16,18.12,108.3468,20.65,21.63,14.48,0,110.9,13.17,21.47,271.2
"2009-06-07 01:04:00",953715,8.99,303.3,4.183,0.474,18.26,108.3436,20.64,21.63,14.36,0,110.9,13.17,21.47,265.3
"2009-06-07 01:04:30",953716,8.89,306.1,3.098,0.324,18.16,108.3329,20.61,21.63,14.27,0,110.9,13.17,21.44,268.1
"2009-06-07 01:05:00",953717,8.44,305.7,2.825,0.442,18.14,108.333,20.61,21.62,14.3,0,110.9,13.17,21.44,267.7
"2009-06-07 01:05:30",953718,9.46,310,1.448,0.262,18.12,108.3313,20.61,21.62,14.28,0,110.9,13.17,21.43,272.0
"2009-06-07 01:06:00",953719,9.47,307.8,1.511,0.302,18.1,108.3305,20.61,21.61,14.32,0,110.9,13.17,21.43,269.8
"2009-06-07 01:06:30",953720,9.27,308.5,2.476,0.137,18.14,108.3303,20.61,21.61,14.33,0,110.9,13.17,21.43,270.5
"2009-06-07 01:07:00",953721,9.13,305.9,1.369,0.286,18.17,108.3285,20.6,21.61,14.32,0,110.9,13.17,21.43,267.9
"2009-06-07 01:07:30",953722,9.19,307.3,2.62,0.22,18.16,108.3296,20.61,21.61,14.35,0,110.9,13.17,21.43,269.3
"2009-06-07 01:08:00",953723,9.58,305.7,3.153,0.312,18.15,108.3302,20.61,21.61,14.38,0,110.9,13.17,21.43,267.7
"2009-06-07 01:08:30",953724,9.11,307.4,3.35,0.447,18.16,108.3305,20.61,21.61,14.41,0,110.9,13.17,21.43,269.4
"2009-06-07 01:09:00",953725,9.91,314.2,1.806,0.249,18.05,108.3305,20.61,21.61,14.64,0,110.9,13.17,21.43,276.2
"2009-06-07 01:09:30",953726,10,312.3,2.145,0.253,18.12,108.3305,20.61,21.6,15.13,0,110.9,13.17,21.43,274.3
"2009-06-07 01:10:00",953727,10.53,307.7,2.015,0.268,18.19,108.3305,20.61,21.61,15.2,0,110.9,13.17,21.43,269.7
"2009-06-07 01:10:30",953728,10.79,306.9,1.255,0.212,18.2,108.3305,20.61,21.6,14.86,0,110.9,13.17,21.43,268.9
"2009-06-07 01:11:00",953729,10.63,306.2,1.508,0.252,18.25,108.3305,20.61,21.6,14.64,0,110.9,13.17,21.43,268.2
"2009-06-07 01:11:30",953730,11.03,307.6,0.681,0.239,18.24,108.33,20.61,21.61,14.55,0,110.9,13.17,21.43,269.6
"2009-06-07 01:12:00",953731,10.93,305.8,1.374,0.34,18.25,108.3274,20.6,21.59,14.59,0,110.9,13.17,21.42,267.8
"2009-06-07 01:12:30",953732,10.5,304.8,1.97,0.616,18.22,108.3212,20.58,21.59,14.71,0,110.9,13.17,21.41,266.8
"2009-06-07 01:13:00",953733,11.28,306.6,1.404,0.492,18.26,108.3072,20.55,21.58,14.79,0,110.9,13.17,21.37,268.6
"2009-06-07 01:13:30",953734,10.88,306.3,1.79,0.361,18.22,108.2971,20.52,21.59,14.58,0,110.9,13.17,21.35,268.3
"2009-06-07 01:14:00",953735,10.98,308.5,1.326,0.311,18.26,108.2968,20.52,21.56,14.52,0,110.9,13.17,21.34,270.5
"2009-06-07 01:14:30",953736,9.76,307.3,1.732,0.476,18.4,108.2968,20.52,21.56,14.35,0,110.9,13.17,21.34,269.3
"2009-06-07 01:15:00",953737,9.52,307.9,1.421,0.372,18.44,108.292,20.51,21.55,14.29,0,110.9,13.17,21.33,269.9
"2009-06-07 01:15:30",953738,9.14,306.1,1.262,0.159,18.4,108.2752,20.47,21.52,14.24,0,110.9,13.17,21.29,268.1
"2009-06-07 01:16:00",953739,8.61,303.4,1.778,0.172,18.38,108.2684,20.45,21.52,14.21,0,110.9,13.18,21.27,265.4
"2009-06-07 01:16:30",953740,8.93,306.3,2.074,0.341,18.27,108.2652,20.44,21.5,14.21,0,110.9,13.18,21.26,268.3
"2009-06-07 01:17:00",953741,10.25,309.7,1.249,0.467,18.11,108.2673,20.45,21.52,14.3,0,110.9,13.18,21.27,271.7
"2009-06-07 01:17:30",953742,11.05,309.8,0.987,0.241,18.14,108.2658,20.44,21.51,14.38,0,110.9,13.18,21.26,271.8
"2009-06-07 01:18:00",953743,11.65,308.3,2.218,0.3,18.13,108.2701,20.45,21.49,14.37,0,110.9,13.18,21.28,270.3
"2009-06-07 01:18:30",953744,11.32,306.5,1.217,0.267,18.16,108.2777,20.47,21.49,14.26,0,110.9,13.18,21.30,268.5
"2009-06-07 01:19:00",953745,11.89,308.9,1.624,0.287,18.11,108.2781,20.47,21.48,14.38,0,110.9,13.18,21.30,270.9
"2009-06-07 01:19:30",953746,11.86,306.1,2.699,0.158,18.11,108.2728,20.46,21.47,14.46,0,110.9,13.18,21.28,268.1
"2009-06-07 01:20:00",953747,11.53,302.4,1.547,0.316,18.11,108.2616,20.43,21.47,14.55,0,110.9,13.18,21.25,264.4
"2009-06-07 01:20:30",953748,11.29,302.7,1.904,0.292,18.14,108.2579,20.42,21.46,14.52,0,110.9,13.18,21.24,264.7
"2009-06-07 01:21:00",953749,10.49,304.9,2.11,0.273,18.16,108.2558,20.42,21.46,14.56,0,110.9,13.18,21.24,266.9
"2009-06-07 01:21:30",953750,10.97,304.1,1.725,0.299,18.1,108.2567,20.42,21.44,14.85,0,110.9,13.18,21.24,266.1
"2009-06-07 01:22:00",953751,11.19,302.1,2.385,0.307,18.14,108.2564,20.42,21.44,14.97,0,110.9,13.18,21.24,264.1
"2009-06-07 01:22:30",953752,11.04,300.1,1.748,0.106,18.29,108.2556,20.42,21.43,14.35,0,110.9,13.18,21.24,262.1
"2009-06-07 01:23:00",953753,11.15,304.2,2.102,0.31,18.19,108.2421,20.38,21.43,14.42,0,110.9,13.18,21.20,266.2
"2009-06-07 01:23:30",953754,10.64,304.7,3.043,0.601,18.1,108.2327,20.36,21.42,14.45,0,110.9,13.18,21.18,266.7
"2009-06-07 01:24:00",953755,10.55,301.5,4.133,0.227,18.15,108.2303,20.35,21.39,14.37,0,110.9,13.18,21.17,263.5
"2009-06-07 01:24:30",953756,11.61,307.3,1.898,0.753,18.08,108.2275,20.34,21.38,14.39,0,110.9,13.18,21.17,269.3
"2009-06-07 01:25:00",953757,11.52,308,1.296,0.258,18.07,108.23,20.35,21.39,14.5,0,110.9,13.19,21.17,270.0
"2009-06-07 01:25:30",953758,11.23,305.1,2.001,0.437,17.98,108.2315,20.35,21.37,14.84,0,110.9,13.18,21.18,267.1
"2009-06-07 01:26:00",953759,11.67,309.3,1.547,0.273,18.07,108.2321,20.36,21.37,14.8,0,110.9,13.18,21.18,271.3
"2009-06-07 01:26:30",953760,11.36,310.6,1.19,0.473,18.19,108.2321,20.36,21.36,14.63,0,110.9,13.18,21.18,272.6
"2009-06-07 01:27:00",953761,11.09,306.8,2.082,0.425,18.17,108.2321,20.36,21.35,14.4,0,110.9,13.18,21.18,268.8
"2009-06-07 01:27:30",953762,11.2,303,2.094,0.381,18.17,108.2321,20.36,21.35,14.41,0,110.9,13.18,21.18,265.0
"2009-06-07 01:28:00",953763,11.02,307.4,2.262,0.354,18.13,108.2318,20.35,21.35,14.46,0,110.9,13.18,21.18,269.4
"2009-06-07 01:28:30",953764,10.78,311.6,1.323,0.268,18.12,108.2251,20.34,21.33,14.55,0,110.9,13.18,21.16,273.6
"2009-06-07 01:29:00",953765,10.87,310.6,2.581,0.339,18.12,108.22,20.32,21.34,14.56,0,110.9,13.18,21.15,272.6
"2009-06-07 01:29:30",953766,10.1,306.3,2.986,0.768,18.09,108.213,20.31,21.33,14.7,0,110.9,13.18,21.13,268.3
"2009-06-07 01:30:00",953767,9.6,309.6,2.283,0.236,18.07,108.211,20.3,21.33,14.89,0,110.9,13.18,21.12,271.6
"2009-06-07 01:30:30",953768,9.92,315,0.887,0.191,18.06,108.2091,20.3,21.33,15.19,0,110.9,13.18,21.12,277.0
"2009-06-07 01:31:00",953769,9.77,312.8,2.455,0.575,18.09,108.2093,20.3,21.33,15.17,0,110.9,13.19,21.12,274.8
"2009-06-07 01:31:30",953770,9.86,316.2,2.265,0.633,18.01,108.2105,20.3,21.33,15.35,0,110.9,13.19,21.12,278.2
"2009-06-07 01:32:00",953771,10.52,313.2,2.766,0.578,17.96,108.2074,20.29,21.33,15.84,0,110.9,13.19,21.11,275.2
"2009-06-07 01:32:30",953772,10.02,312.5,2.252,0.456,17.98,108.2063,20.29,21.32,16.07,0,110.9,13.19,21.11,274.5
"2009-06-07 01:33:00",953773,9.4,312.5,1.902,0.382,18,108.2057,20.29,21.34,16.35,0,110.9,13.19,21.11,274.5
"2009-06-07 01:33:30",953774,9.94,313.6,2.351,0.516,17.99,108.2057,20.29,21.33,16.35,0,110.9,13.19,21.11,275.6
"2009-06-07 01:34:00",953775,10.52,318.3,1.413,0.284,18.06,108.2034,20.28,21.33,16.17,0,110.9,13.19,21.10,280.3
"2009-06-07 01:34:30",953776,10.34,314.9,1.535,0.19,18.11,108.2006,20.27,21.33,16.13,0,110.9,13.19,21.10,276.9
"2009-06-07 01:35:00",953777,10.34,313,1.323,0.197,18.09,108.1989,20.27,21.32,15.97,0,110.9,13.19,21.09,275.0
"2009-06-07 01:35:30",953778,9.83,315.4,2.297,0.333,18.13,108.1987,20.27,21.32,16.11,0,110.9,13.19,21.09,277.4
"2009-06-07 01:36:00",953779,9.57,314.7,0.964,0.24,18.1,108.1987,20.27,21.3,16.17,0,110.9,13.19,21.09,276.7
"2009-06-07 01:36:30",953780,9.52,312.1,1.518,0.514,18.15,108.1987,20.27,21.31,16.2,0,110.9,13.19,21.09,274.1
"2009-06-07 01:37:00",953781,9.97,314.4,1.442,0.321,18.1,108.1993,20.27,21.3,15.98,0,110.9,13.19,21.09,276.4
"2009-06-07 01:37:30",953782,9.67,314.3,1.247,0.286,18.08,108.2008,20.27,21.31,16.28,0,110.9,13.19,21.10,276.3
"2009-06-07 01:38:00",953783,9.5,313.9,1.398,0.299,18.03,108.1983,20.27,21.29,16.51,0,110.9,13.19,21.09,275.9
"2009-06-07 01:38:30",953784,10.47,310.7,1.158,0.567,18.12,108.1872,20.24,21.29,16.38,0,110.9,13.19,21.06,272.7
"2009-06-07 01:39:00",953785,11.07,311.9,1.029,0.164,18.1,108.1755,20.21,21.28,15.76,0,110.9,13.19,21.03,273.9
"2009-06-07 01:39:30",953786,10.72,309.5,0.869,0.147,18.16,108.1695,20.19,21.27,15.55,0,110.9,13.19,21.02,271.5
"2009-06-07 01:40:00",953787,10.39,312.1,1.464,0.19,18.17,108.1729,20.2,21.26,15.47,0,110.9,13.2,21.03,274.1
"2009-06-07 01:40:30",953788,9.67,313.6,1.07,0.371,18.18,108.1709,20.2,21.25,15.39,0,110.9,13.2,21.02,275.6
"2009-06-07 01:41:00",953789,9.99,313.5,2.147,0.36,18.11,108.1527,20.15,21.24,15.53,0,110.9,13.2,20.97,275.5
"2009-06-07 01:41:30",953790,10.48,316.9,1.473,0.154,18.02,108.1502,20.15,21.22,15.69,0,110.9,13.2,20.97,278.9
"2009-06-07 01:42:00",953791,10.33,317.2,1.205,0.241,18,108.1479,20.14,21.21,15.89,0,110.9,13.2,20.96,279.2
"2009-06-07 01:42:30",953792,10.27,316.6,2.037,0.178,17.93,108.147,20.14,21.2,16.12,0,110.9,13.19,20.96,278.6
"2009-06-07 01:43:00",953793,11.34,313.5,1.189,0.389,17.98,108.1522,20.15,21.19,16.2,0,110.9,13.19,20.97,275.5
"2009-06-07 01:43:30",953794,11.27,313.6,1.133,0.211,17.94,108.1517,20.15,21.16,16.18,0,110.8,13.19,20.97,275.6
"2009-06-07 01:44:00",953795,11.8,314.8,1.193,0.107,17.96,108.1362,20.11,21.15,16.01,0,110.8,13.19,20.93,276.8
"2009-06-07 01:44:30",953796,11.65,313.5,0.914,0.124,18.02,108.129,20.09,21.15,15.67,0,110.8,13.19,20.91,275.5
"2009-06-07 01:45:00",953797,11.36,313.5,1.092,0.124,18.02,108.1294,20.09,21.12,15.56,0,110.8,13.19,20.91,275.5
"2009-06-07 01:45:30",953798,11.49,313.8,1.187,0.396,17.9,108.1306,20.09,21.12,15.64,0,110.8,13.19,20.92,275.8
"2009-06-07 01:46:00",953799,11.63,311.5,1.84,0.315,18.01,108.1293,20.09,21.1,15.59,0,110.8,13.19,20.91,273.5
"2009-06-07 01:46:30",953800,11.41,310.6,0.968,0.189,18.07,108.1229,20.08,21.08,15.4,0,110.8,13.19,20.90,272.6
"2009-06-07 01:47:00",953801,10.73,311.4,1.189,0.369,18.04,108.1095,20.04,21.08,15.4,0,110.8,13.19,20.86,273.4
"2009-06-07 01:47:30",953802,11.08,311.1,1.439,0.221,17.97,108.0996,20.02,21.06,15.46,0,110.8,13.19,20.84,273.1
"2009-06-07 01:48:00",953803,11.61,310.3,0.961,0.157,17.95,108.0999,20.02,21.04,15.63,0,110.8,13.2,20.84,272.3